SEH737 LGAV-LGRP

Flight info

Callsign SEH737
Flight time 0h 41m
Altitude 31000
Route KEA UL995 CODIC
Aircraft A320/M-SDE3FGHIRWY/LB1

Departure

Time 2026-05-04 05:25
Airport Athens Eleftherios Venizelos International Airport (LGAV)

Arrival

Time 2026-05-04 06:07
Airport Rhodes International Airport "Diagoras" (LGRP)
Time Latitude Longitude Altitude Speed Heading
2026-05-04 05:07 37.94030 23.95297 301 ft 0 kts 39°
2026-05-04 05:19 37.94023 23.95289 300 ft 4 kts 40°
2026-05-04 05:20 37.94003 23.95267 301 ft 4 kts 46°
2026-05-04 05:20 37.93985 23.95241 300 ft 4 kts 60°
2026-05-04 05:20 37.93977 23.95211 301 ft 4 kts 104°
2026-05-04 05:20 37.93982 23.95197 300 ft 1 kts 127°
2026-05-04 05:21 37.93983 23.95196 300 ft 0 kts 127°
2026-05-04 05:22 37.93981 23.95200 300 ft 4 kts 127°
2026-05-04 05:23 37.93944 23.95262 300 ft 11 kts 127°
2026-05-04 05:23 37.93899 23.95338 299 ft 10 kts 126°
2026-05-04 05:23 37.93856 23.95411 298 ft 11 kts 129°
2026-05-04 05:23 37.93788 23.95415 296 ft 13 kts 212°
2026-05-04 05:24 37.93685 23.95319 299 ft 24 kts 216°
2026-05-04 05:24 37.93552 23.95191 299 ft 19 kts 218°
2026-05-04 05:24 37.93473 23.95165 299 ft 12 kts 149°
2026-05-04 05:24 37.93474 23.95273 292 ft 16 kts 65°
2026-05-04 05:25 37.93581 23.95481 282 ft 57 kts 46°
2026-05-04 05:25 37.94085 23.95969 283 ft 122 kts 37°
2026-05-04 05:25 37.94895 23.96740 354 ft 164 kts 36°
2026-05-04 05:25 37.95789 23.97612 1029 ft 162 kts 36°
2026-05-04 05:26 37.96682 23.98471 1829 ft 161 kts 34°
2026-05-04 05:26 37.97475 23.99533 2355 ft 180 kts 62°
2026-05-04 05:26 37.97565 24.01200 2695 ft 210 kts 107°
2026-05-04 05:26 37.96815 24.02908 3011 ft 236 kts 122°
2026-05-04 05:27 37.95791 24.04677 3472 ft 261 kts 126°
2026-05-04 05:28 37.87343 24.18555 7011 ft 293 kts 123°
2026-05-04 05:29 37.86116 24.20624 7129 ft 297 kts 123°
2026-05-04 05:29 37.84869 24.22724 8025 ft 298 kts 123°
2026-05-04 05:29 37.83618 24.24837 8952 ft 302 kts 123°
2026-05-04 05:29 37.82347 24.26984 9808 ft 308 kts 123°
2026-05-04 05:31 37.71356 24.45451 12651 ft 418 kts 125°
2026-05-04 05:31 37.69586 24.48389 13298 ft 422 kts 125°
2026-05-04 05:32 37.67803 24.51354 13929 ft 425 kts 125°
2026-05-04 05:32 37.66008 24.54341 14490 ft 429 kts 125°
2026-05-04 05:32 37.64203 24.57348 15046 ft 432 kts 125°
2026-05-04 05:33 37.60573 24.63391 16117 ft 438 kts 125°
2026-05-04 05:33 37.58725 24.66462 16624 ft 441 kts 125°
2026-05-04 05:33 37.56870 24.69558 17155 ft 444 kts 125°
2026-05-04 05:33 37.54993 24.72683 17594 ft 449 kts 125°
2026-05-04 05:34 37.53096 24.75832 18071 ft 453 kts 125°
2026-05-04 05:34 37.51181 24.79005 18542 ft 457 kts 125°
2026-05-04 05:34 37.49249 24.82204 18974 ft 459 kts 125°
2026-05-04 05:34 37.47307 24.85410 19398 ft 462 kts 125°
2026-05-04 05:35 37.45347 24.88635 19819 ft 465 kts 126°
2026-05-04 05:35 37.43378 24.91873 20243 ft 467 kts 125°
2026-05-04 05:35 37.41402 24.95131 20651 ft 470 kts 125°
2026-05-04 05:35 37.39416 24.98404 21050 ft 472 kts 126°
2026-05-04 05:36 37.37506 25.01764 21454 ft 472 kts 120°
2026-05-04 05:36 37.35990 25.05379 22108 ft 464 kts 113°
2026-05-04 05:36 37.34872 25.09164 22658 ft 461 kts 107°
2026-05-04 05:36 37.33862 25.12994 23107 ft 461 kts 107°
2026-05-04 05:37 37.32857 25.16760 23508 ft 461 kts 108°
2026-05-04 05:37 37.31824 25.20585 23848 ft 462 kts 108°
2026-05-04 05:37 37.30783 25.24426 24082 ft 466 kts 107°
2026-05-04 05:38 37.28679 25.32191 24474 ft 473 kts 108°
2026-05-04 05:38 37.27624 25.36115 24781 ft 473 kts 108°
2026-05-04 05:38 37.26512 25.40010 25051 ft 475 kts 109°
2026-05-04 05:38 37.25308 25.43883 25346 ft 477 kts 111°
2026-05-04 05:39 37.24042 25.47731 25634 ft 478 kts 111°
2026-05-04 05:39 37.21430 25.55464 26104 ft 484 kts 110°
2026-05-04 05:39 37.20110 25.59355 26422 ft 484 kts 111°
2026-05-04 05:40 37.17491 25.67105 27001 ft 487 kts 111°
2026-05-04 05:40 37.16179 25.71025 27364 ft 487 kts 111°
2026-05-04 05:40 37.14869 25.74944 27712 ft 487 kts 112°
2026-05-04 05:41 37.13554 25.78869 27922 ft 491 kts 110°
2026-05-04 05:41 37.12231 25.82823 28249 ft 492 kts 111°
2026-05-04 05:41 37.10913 25.86771 28664 ft 491 kts 110°
2026-05-04 05:41 37.09590 25.90719 28970 ft 492 kts 110°
2026-05-04 05:42 37.08259 25.94681 29265 ft 494 kts 111°
2026-05-04 05:42 37.06928 25.98631 29774 ft 491 kts 111°
2026-05-04 05:42 37.05599 26.02570 30113 ft 492 kts 111°
2026-05-04 05:42 37.04263 26.06524 30363 ft 493 kts 111°
2026-05-04 05:43 37.02926 26.10468 30672 ft 493 kts 111°
2026-05-04 05:43 37.01586 26.14418 30966 ft 493 kts 111°
2026-05-04 05:45 36.90751 26.46304 31059 ft 498 kts 111°
2026-05-04 05:47 36.80469 26.76321 30169 ft 459 kts 112°
2026-05-04 05:47 36.79225 26.79930 29887 ft 447 kts 112°
2026-05-04 05:47 36.77617 26.84584 29363 ft 437 kts 112°
2026-05-04 05:48 36.76425 26.88031 28926 ft 429 kts 112°
2026-05-04 05:48 36.75254 26.91408 28512 ft 421 kts 113°
2026-05-04 05:48 36.74470 26.93664 28197 ft 417 kts 112°
2026-05-04 05:48 36.73328 26.96958 27754 ft 411 kts 112°
2026-05-04 05:49 36.72204 27.00208 27331 ft 404 kts 112°
2026-05-04 05:49 36.71118 27.03352 26955 ft 397 kts 113°
2026-05-04 05:49 36.70023 27.06505 26244 ft 399 kts 112°
2026-05-04 05:49 36.68910 27.09700 25361 ft 405 kts 112°
2026-05-04 05:51 36.60747 27.33003 19082 ft 432 kts 112°
2026-05-04 05:51 36.59540 27.36438 18234 ft 435 kts 111°
2026-05-04 05:52 36.58324 27.39896 17279 ft 437 kts 111°
2026-05-04 05:52 36.57100 27.43371 16365 ft 440 kts 110°
2026-05-04 05:52 36.55867 27.46866 15455 ft 441 kts 110°
2026-05-04 05:52 36.54631 27.50367 14573 ft 442 kts 111°
2026-05-04 05:53 36.53393 27.53866 13717 ft 443 kts 111°
2026-05-04 05:54 36.46067 27.76483 8956 ft 394 kts 91°
2026-05-04 05:55 36.46038 27.79034 8424 ft 381 kts 79°
2026-05-04 05:55 36.46282 27.81618 7893 ft 374 kts 77°
2026-05-04 05:55 36.46537 27.84801 7248 ft 366 kts 76°
2026-05-04 05:55 36.46894 27.87900 6638 ft 359 kts 75°
2026-05-04 05:56 36.47250 27.90942 6012 ft 353 kts 76°
2026-05-04 05:56 36.47425 27.92422 5696 ft 350 kts 76°
2026-05-04 05:56 36.47710 27.94801 5182 ft 346 kts 75°
2026-05-04 05:56 36.48052 27.97742 4538 ft 341 kts 76°
2026-05-04 05:57 36.48423 28.00579 3897 ft 333 kts 72°
2026-05-04 05:57 36.48921 28.03367 3272 ft 328 kts 70°
2026-05-04 05:57 36.49422 28.06119 2623 ft 325 kts 70°
2026-05-04 05:57 36.49950 28.08833 2144 ft 319 kts 69°
2026-05-04 05:58 36.50502 28.11420 2032 ft 300 kts 70°
2026-05-04 05:58 36.51008 28.13835 2049 ft 277 kts 69°
2026-05-04 05:58 36.51470 28.16097 2025 ft 264 kts 70°
2026-05-04 05:58 36.51912 28.18304 2047 ft 262 kts 70°
2026-05-04 05:59 36.52362 28.20486 2043 ft 256 kts 69°
2026-05-04 05:59 36.52790 28.22564 2022 ft 239 kts 69°
2026-05-04 05:59 36.53184 28.24489 2020 ft 221 kts 70°
2026-05-04 05:59 36.53540 28.26296 2022 ft 211 kts 69°
2026-05-04 06:00 36.53872 28.28061 2040 ft 209 kts 71°
2026-05-04 06:00 36.54207 28.29828 2044 ft 211 kts 70°
2026-05-04 06:00 36.54553 28.31606 2028 ft 212 kts 71°
2026-05-04 06:00 36.54547 28.33479 2026 ft 227 kts 102°
2026-05-04 06:01 36.53702 28.35167 2021 ft 238 kts 139°
2026-05-04 06:01 36.52204 28.35990 2015 ft 236 kts 178°
2026-05-04 06:03 36.46548 28.27162 2030 ft 188 kts 251°
2026-05-04 06:03 36.45955 28.25718 2020 ft 187 kts 252°
2026-05-04 06:05 36.42838 28.16513 1066 ft 138 kts 260°
2026-05-04 06:05 36.42207 28.14343 715 ft 132 kts 261°
2026-05-04 06:05 36.41894 28.13269 547 ft 132 kts 261°
2026-05-04 06:06 36.41586 28.12193 395 ft 131 kts 258°
2026-05-04 06:06 36.41269 28.11127 226 ft 132 kts 259°
2026-05-04 06:06 36.40954 28.10050 54 ft 132 kts 259°
2026-05-04 06:06 36.40687 28.09129 33 ft 118 kts 254°
2026-05-04 06:07 36.40513 28.08588 28 ft 1 kts 218°
2026-05-04 06:07 36.40507 28.08593 27 ft 3 kts 151°
2026-05-04 06:07 36.40479 28.08641 28 ft 11 kts 116°
2026-05-04 06:07 36.40446 28.08731 28 ft 11 kts 115°
2026-05-04 06:08 36.40401 28.08846 28 ft 18 kts 103°
2026-05-04 06:08 36.40313 28.08917 28 ft 12 kts 159°
2026-05-04 06:08 36.40303 28.08923 28 ft 0 kts 158°